Flag for Canada Weather past 2 weeks in North Bay, Ontario, Canada

Now
77 °F

Passing clouds.


Feels Like: 79 °F
Forecast: 65 / 87 °F
Wind: 7 mph from Southwest

Location: North Bay

Current Time: Jul 28, 2015 at 10:49:03 PM

Latest Report: Jul 28, 2015 at 10:00 PM


Visibility: 15 mi

Pressure: 29.97 "Hg

Humidity: 65%

Dew point: 64 °F

Location of North BayLocation

Historic Weather in North Bay — Graph

°F

North Bay temperature yesterday

Maximum temperature yesterday: 84 °F (at 3:00 PM)
Minimum temperature yesterday: 64 °F (at 4:00 AM)
Average temperature yesterday: 74 °F

Past Weeks' High & Low Weather Summary

 TemperatureHumidityPressure
High90 °F (Jul 28, 4:00 PM)100% (Jul 15, 5:00 AM)30.15 "Hg (Jul 15, 5:00 AM)
Low41 °F (Jul 15, 5:00 AM)34% (Jul 24, 3:00 PM)29.53 "Hg (Jul 14, 7:00 AM)
Average66 °F76%29.85 "Hg
* Reported Jul 13 10:00 PM — Jul 28 10:00 PM, North Bay, Weather by CustomWeather, © 2015

Note: Actual official high and low records may vary slightly from our data, if they occured in-between our weather recording intervals... More about our weather records

Advertising

North Bay weather history for previous 24 hours

 ConditionsComfort  
Time TempWeatherWind HumidityBarometerVisibility
10:00 PM
Tue, Jul 28
77 °FPassing clouds.7 mph65%29.97 "Hg15 mi
9:00 PM79 °FPartly sunny.8 mph61%29.95 "Hg30 mi
8:00 PM82 °FOvercast.9 mph58%29.94 "Hg30 mi
7:00 PM88 °FOvercast.7 mph46%29.95 "Hg30 mi
6:00 PM88 °FOvercast.7 mph43%29.95 "Hg30 mi
5:00 PM88 °FPartly sunny.12 mph43%29.96 "Hg30 mi
4:00 PM90 °FPartly sunny.13 mph46%29.97 "Hg15 mi
3:00 PM88 °FPartly sunny.10 mph49%29.97 "Hg30 mi
2:00 PM86 °FPartly sunny.12 mph49%29.98 "Hg30 mi
1:00 PM84 °FScattered clouds.14 mph51%29.99 "Hg30 mi
12:00 PM82 °FPassing clouds.9 mph58%30.01 "Hg30 mi
11:00 AM79 °FPassing clouds.5 mph70%30.01 "Hg30 mi
10:00 AM77 °FPassing clouds.3 mph69%30.02 "Hg30 mi
9:00 AM73 °FPassing clouds.5 mph78%30.01 "Hg30 mi
8:00 AM70 °FPartly sunny.6 mph83%30.01 "Hg30 mi
7:00 AM66 °FPartly sunny.2 mph94%30.01 "Hg30 mi
6:00 AM66 °FClear.3 mph88%30.00 "Hg9 mi
5:00 AM66 °FPassing clouds.2 mph88%30.00 "Hg9 mi
4:00 AM68 °FMostly cloudy.5 mph83%29.99 "Hg9 mi
3:00 AM68 °FClear.6 mph83%29.99 "Hg9 mi
2:00 AM68 °FPassing clouds.7 mph88%29.98 "Hg9 mi
1:00 AM72 °FOvercast.5 mph78%29.99 "Hg9 mi
12:00 AM72 °FPassing clouds.7 mph78%29.99 "Hg9 mi
11:00 PM
Mon, Jul 27
72 °FClear.6 mph78%29.99 "Hg9 mi
10:00 PM73 °FPassing clouds.5 mph69%29.99 "Hg15 mi
Weather by CustomWeather, © 2015

See weather overviewHow to use our weather pages